Wetterdaten: Sonntag, 05.07.2009
Datum Zeit Temp. a Sch. Temp. a Son. Temp. a Bod. Feuchte a. Luftdruck Regen Wind Richtung Richtung Sonnenschein Helligkeit Taupunkt Windchill
05.07.2009 00:01 16,4 C 17,9 C 18,1 C 80 % 1013 hPa 0,0 l/m 0,3 m/s (0 Bft) W22.5 270 0 min 0 lux 12,9 C 16,4 C
05.07.2009 00:06 16,2 C 17,7 C 17,9 C 82 % 1013 hPa 0,0 l/m 0,1 m/s (0 Bft) W 275 0 min 0 lux 13,1 C 16,2 C
05.07.2009 00:11 16,2 C 17,7 C 18,1 C 81 % 1013 hPa 0,0 l/m 0,2 m/s (0 Bft) W22.5 270 0 min 0 lux 12,9 C 16,2 C
05.07.2009 00:17 16,1 C 17,5 C 17,7 C 82 % 1013 hPa 0,0 l/m 0,0 m/s (0 Bft) W-SW 250 0 min 0 lux 13,0 C 16,1 C
05.07.2009 00:22 16,0 C 17,4 C 17,7 C 81 % 1013 hPa 0,0 l/m 0,0 m/s (0 Bft) W-SW 250 0 min 0 lux 12,7 C 16,0 C
05.07.2009 00:27 15,8 C 17,3 C 17,8 C 82 % 1013 hPa 0,0 l/m 0,0 m/s (0 Bft) W-SW 250 0 min 0 lux 12,7 C 15,8 C
05.07.2009 00:32 15,8 C 17,2 C 17,8 C 82 % 1013 hPa 0,0 l/m 0,0 m/s (0 Bft) W-SW 250 0 min 0 lux 12,7 C 15,8 C
05.07.2009 00:37 15,7 C 17,1 C 17,7 C 83 % 1013 hPa 0,0 l/m 0,0 m/s (0 Bft) W-SW 250 0 min 0 lux 12,8 C 15,7 C
05.07.2009 00:41 15,6 C 17,1 C 17,5 C 83 % 1013 hPa 0,0 l/m 0,0 m/s (0 Bft) W-SW 250 0 min 0 lux 12,7 C 15,6 C
05.07.2009 00:46 15,6 C 17,0 C 17,4 C 83 % 1013 hPa 0,0 l/m 0,0 m/s (0 Bft) W-SW 250 0 min 0 lux 12,7 C 15,6 C
05.07.2009 00:51 15,4 C 16,9 C 17,6 C 83 % 1013 hPa 0,0 l/m 0,0 m/s (0 Bft) W-SW 250 0 min 0 lux 12,5 C 15,4 C
05.07.2009 00:56 15,3 C 16,8 C 17,4 C 84 % 1014 hPa 0,0 l/m 1,3 m/s (1 Bft) W22.5 270 0 min 0 lux 12,6 C 15,3 C
05.07.2009 01:01 15,2 C 16,8 C 17,0 C 84 % 1013 hPa 0,0 l/m 0,1 m/s (0 Bft) W 265 0 min 0 lux 12,5 C 15,2 C
05.07.2009 01:06 15,2 C 16,7 C 17,2 C 84 % 1014 hPa 0,0 l/m 0,0 m/s (0 Bft) W 260 0 min 0 lux 12,5 C 15,2 C
05.07.2009 01:11 15,0 C 16,6 C 16,9 C 84 % 1014 hPa 0,0 l/m 0,0 m/s (0 Bft) W 260 0 min 0 lux 12,3 C 15,0 C
05.07.2009 01:16 15,0 C 16,5 C 17,1 C 84 % 1013 hPa 0,0 l/m 0,0 m/s (0 Bft) W 260 0 min 0 lux 12,3 C 15,0 C
05.07.2009 01:21 15,0 C 16,4 C 16,9 C 84 % 1014 hPa 0,0 l/m 0,0 m/s (0 Bft) W 260 0 min 0 lux 12,3 C 15,0 C
05.07.2009 01:26 14,9 C 16,3 C 16,6 C 84 % 1014 hPa 0,0 l/m 0,0 m/s (0 Bft) W 260 0 min 0 lux 12,2 C 14,9 C
05.07.2009 01:31 14,7 C 16,2 C 16,5 C 84 % 1014 hPa 0,0 l/m 0,0 m/s (0 Bft) W 260 0 min 0 lux 12,0 C 14,7 C
05.07.2009 01:36 14,6 C 16,1 C 16,6 C 84 % 1013 hPa 0,0 l/m 0,0 m/s (0 Bft) W 260 0 min 0 lux 11,9 C 14,6 C
05.07.2009 01:41 14,6 C 16,0 C 16,4 C 84 % 1013 hPa 0,0 l/m 0,0 m/s (0 Bft) W 260 0 min 0 lux 11,9 C 14,6 C
05.07.2009 01:46 14,5 C 15,9 C 16,4 C 85 % 1013 hPa 0,0 l/m 0,0 m/s (0 Bft) W 260 0 min 0 lux 12,0 C 14,5 C
05.07.2009 01:51 14,4 C 15,8 C 16,4 C 85 % 1013 hPa 0,0 l/m 0,0 m/s (0 Bft) W 260 0 min 0 lux 11,9 C 14,4 C
05.07.2009 01:56 14,3 C 15,7 C 16,3 C 85 % 1013 hPa 0,0 l/m 0,0 m/s (0 Bft) W 260 0 min 0 lux 11,8 C 14,3 C
05.07.2009 02:01 14,3 C 15,7 C 16,3 C 85 % 1013 hPa 0,0 l/m 0,0 m/s (0 Bft) W 260 0 min 0 lux 11,8 C 14,3 C
05.07.2009 02:06 14,2 C 15,6 C 16,1 C 86 % 1013 hPa 0,0 l/m 0,0 m/s (0 Bft) W 260 0 min 0 lux 11,9 C 14,2 C
05.07.2009 02:11 14,2 C 15,5 C 16,2 C 86 % 1013 hPa 0,0 l/m 0,0 m/s (0 Bft) W 260 0 min 0 lux 11,9 C 14,2 C
05.07.2009 02:16 14,1 C 15,4 C 16,0 C 86 % 1013 hPa 0,0 l/m 0,0 m/s (0 Bft) W 260 0 min 0 lux 11,8 C 14,1 C
05.07.2009 02:21 14,0 C 15,4 C 15,8 C 87 % 1013 hPa 0,0 l/m 0,0 m/s (0 Bft) W 260 0 min 0 lux 11,9 C 14,0 C
05.07.2009 02:26 14,0 C 15,3 C 15,8 C 87 % 1013 hPa 0,0 l/m 0,0 m/s (0 Bft) W 260 0 min 0 lux 11,9 C 14,0 C
05.07.2009 02:31 14,0 C 15,2 C 16,1 C 88 % 1013 hPa 0,0 l/m 0,0 m/s (0 Bft) W 260 0 min 0 lux 12,0 C 14,0 C
05.07.2009 02:36 14,0 C 15,1 C 16,0 C 88 % 1013 hPa 0,0 l/m 0,0 m/s (0 Bft) W 260 0 min 0 lux 12,0 C 14,0 C
05.07.2009 02:41 13,9 C 15,1 C 15,8 C 87 % 1013 hPa 0,0 l/m 0,0 m/s (0 Bft) W 260 0 min 0 lux 11,8 C 13,9 C
05.07.2009 02:46 13,9 C 15,0 C 15,8 C 87 % 1013 hPa 0,0 l/m 0,0 m/s (0 Bft) W 260 0 min 0 lux 11,8 C 13,9 C
05.07.2009 02:51 13,8 C 14,9 C 15,5 C 87 % 1013 hPa 0,0 l/m 0,0 m/s (0 Bft) W 260 0 min 0 lux 11,7 C 13,8 C
05.07.2009 02:56 13,8 C 14,9 C 15,5 C 87 % 1013 hPa 0,0 l/m 0,0 m/s (0 Bft) W 260 0 min 0 lux 11,7 C 13,8 C
05.07.2009 03:01 13,8 C 14,9 C 15,7 C 87 % 1013 hPa 0,0 l/m 0,0 m/s (0 Bft) W 260 0 min 0 lux 11,7 C 13,8 C
05.07.2009 03:06 13,7 C 14,7 C 15,7 C 88 % 1013 hPa 0,0 l/m 0,0 m/s (0 Bft) W 260 0 min 0 lux 11,7 C 13,7 C
05.07.2009 03:11 13,6 C 14,7 C 14,9 C 88 % 1013 hPa 0,0 l/m 0,0 m/s (0 Bft) W 260 0 min 0 lux 11,6 C 13,6 C
05.07.2009 03:16 13,5 C 14,6 C 15,1 C 88 % 1013 hPa 0,0 l/m 0,0 m/s (0 Bft) W 260 0 min 0 lux 11,6 C 13,5 C
05.07.2009 03:21 13,4 C 14,6 C 15,3 C 88 % 1013 hPa 0,0 l/m 0,0 m/s (0 Bft) W 260 0 min 0 lux 11,5 C 13,4 C
05.07.2009 03:26 13,4 C 14,5 C 15,2 C 88 % 1013 hPa 0,0 l/m 0,0 m/s (0 Bft) W 260 0 min 0 lux 11,5 C 13,4 C
05.07.2009 03:31 13,4 C 14,5 C 15,3 C 88 % 1013 hPa 0,0 l/m 0,0 m/s (0 Bft) W 260 0 min 0 lux 11,5 C 13,4 C
05.07.2009 03:36 13,3 C 14,5 C 15,3 C 88 % 1013 hPa 0,0 l/m 0,0 m/s (0 Bft) W 260 0 min 0 lux 11,4 C 13,3 C
05.07.2009 03:41 13,2 C 14,4 C 15,2 C 89 % 1013 hPa 0,0 l/m 0,0 m/s (0 Bft) W 260 0 min 0 lux 11,4 C 13,2 C
05.07.2009 03:46 13,2 C 14,3 C 15,1 C 89 % 1013 hPa 0,0 l/m 0,0 m/s (0 Bft) W 260 0 min 0 lux 11,4 C 13,2 C
05.07.2009 03:51 13,2 C 14,3 C 15,2 C 89 % 1013 hPa 0,0 l/m 0,0 m/s (0 Bft) W 260 0 min 0 lux 11,4 C 13,2 C
05.07.2009 03:56 13,2 C 14,2 C 15,0 C 89 % 1013 hPa 0,0 l/m 0,0 m/s (0 Bft) W 260 0 min 0 lux 11,4 C 13,2 C
05.07.2009 04:01 13,1 C 14,2 C 15,1 C 89 % 1013 hPa 0,0 l/m 0,0 m/s (0 Bft) W 260 0 min 0 lux 11,3 C 13,1 C
05.07.2009 04:06 13,1 C 14,2 C 15,0 C 89 % 1013 hPa 0,0 l/m 0,0 m/s (0 Bft) W 260 0 min 0 lux 11,3 C 13,1 C
05.07.2009 04:11 13,1 C 14,2 C 15,0 C 89 % 1013 hPa 0,0 l/m 0,0 m/s (0 Bft) W 260 0 min 0 lux 11,3 C 13,1 C
05.07.2009 04:16 13,1 C 14,1 C 15,0 C 90 % 1013 hPa 0,0 l/m 0,0 m/s (0 Bft) W 260 0 min 0 lux 11,5 C 13,1 C
05.07.2009 04:21 13,1 C 14,0 C 14,9 C 89 % 1013 hPa 0,0 l/m 0,0 m/s (0 Bft) W 260 0 min 0 lux 11,3 C 13,1 C
05.07.2009 04:26 13,0 C 14,0 C 14,9 C 90 % 1013 hPa 0,0 l/m 0,0 m/s (0 Bft) W 260 0 min 0 lux 11,4 C 13,0 C
05.07.2009 04:31 13,0 C 13,9 C 14,9 C 90 % 1013 hPa 0,0 l/m 0,0 m/s (0 Bft) W 260 0 min 0 lux 11,4 C 13,0 C
05.07.2009 04:36 12,9 C 13,9 C 14,7 C 90 % 1013 hPa 0,0 l/m 0,0 m/s (0 Bft) W 260 0 min 0 lux 11,3 C 12,9 C
05.07.2009 04:42 12,9 C 13,8 C 14,8 C 90 % 1013 hPa 0,0 l/m 0,0 m/s (0 Bft) W 260 0 min 0 lux 11,3 C 12,9 C
05.07.2009 04:47 12,8 C 13,8 C 14,5 C 90 % 1013 hPa 0,0 l/m 0,0 m/s (0 Bft) W 260 0 min 0 lux 11,2 C 12,8 C
05.07.2009 04:52 12,8 C 13,7 C 14,5 C 90 % 1013 hPa 0,0 l/m 0,0 m/s (0 Bft) W 260 0 min 0 lux 11,2 C 12,8 C
05.07.2009 04:57 12,8 C 13,7 C 13,8 C 90 % 1013 hPa 0,0 l/m 0,0 m/s (0 Bft) W 260 0 min 64 lux 11,2 C 12,8 C
05.07.2009 05:02 12,7 C 13,6 C 13,8 C 91 % 1013 hPa 0,0 l/m 0,0 m/s (0 Bft) W 260 0 min 64 lux 11,3 C 12,7 C
05.07.2009 05:07 12,4 C 13,5 C 14,3 C 90 % 1013 hPa 0,0 l/m 0,0 m/s (0 Bft) SO 130 0 min 156 lux 10,8 C 12,4 C
05.07.2009 05:12 12,4 C 13,5 C 14,2 C 90 % 1013 hPa 0,0 l/m 0,0 m/s (0 Bft) SO 130 0 min 249 lux 10,8 C 12,4 C
05.07.2009 05:17 12,4 C 13,5 C 14,4 C 90 % 1013 hPa 0,0 l/m 0,0 m/s (0 Bft) SO 130 0 min 397 lux 10,8 C 12,4 C
05.07.2009 05:22 12,3 C 13,3 C 14,2 C 90 % 1013 hPa 0,0 l/m 0,0 m/s (0 Bft) SO 130 0 min 566 lux 10,7 C 12,3 C
05.07.2009 05:27 12,3 C 13,3 C 14,1 C 90 % 1013 hPa 0,0 l/m 0,0 m/s (0 Bft) SO 130 0 min 839 lux 10,7 C 12,3 C
05.07.2009 05:32 12,3 C 13,3 C 14,3 C 90 % 1013 hPa 0,0 l/m 0,0 m/s (0 Bft) SO 130 0 min 1,22 klux 10,7 C 12,3 C
05.07.2009 05:37 12,4 C 13,2 C 14,3 C 90 % 1013 hPa 0,0 l/m 0,0 m/s (0 Bft) SO 130 0 min 1,66 klux 10,8 C 12,4 C
05.07.2009 05:42 12,4 C 13,2 C 14,1 C 90 % 1013 hPa 0,0 l/m 0,0 m/s (0 Bft) SO 130 0 min 2,15 klux 10,8 C 12,4 C
05.07.2009 05:47 12,4 C 13,1 C 14,0 C 90 % 1013 hPa 0,0 l/m 0,0 m/s (0 Bft) SO 130 0 min 2,72 klux 10,8 C 12,4 C
05.07.2009 05:52 12,4 C 13,1 C 14,0 C 90 % 1013 hPa 0,0 l/m 0,0 m/s (0 Bft) SO 130 0 min 3,35 klux 10,8 C 12,4 C
05.07.2009 05:57 12,4 C 13,1 C 14,3 C 90 % 1013 hPa 0,0 l/m 0,0 m/s (0 Bft) SO 130 0 min 3,63 klux 10,8 C 12,4 C
05.07.2009 06:02 12,4 C 13,1 C 14,2 C 90 % 1013 hPa 0,0 l/m 0,0 m/s (0 Bft) SO 130 0 min 3,92 klux 10,8 C 12,4 C
05.07.2009 06:07 12,4 C 13,1 C 14,3 C 90 % 1013 hPa 0,0 l/m 0,0 m/s (0 Bft) SO 130 0 min 4,93 klux 10,8 C 12,4 C
05.07.2009 06:12 12,5 C 13,1 C 14,3 C 90 % 1013 hPa 0,0 l/m 0,0 m/s (0 Bft) SO 130 0 min 5,65 klux 10,9 C 12,5 C
05.07.2009 06:17 12,5 C 13,2 C 14,2 C 90 % 1013 hPa 0,0 l/m 0,0 m/s (0 Bft) SO 130 0 min 6,36 klux 10,9 C 12,5 C
05.07.2009 06:22 12,6 C 13,2 C 14,5 C 90 % 1013 hPa 0,0 l/m 0,0 m/s (0 Bft) SO 130 0 min 6,98 klux 11,0 C 12,6 C
05.07.2009 06:27 12,7 C 13,2 C 14,3 C 90 % 1013 hPa 0,0 l/m 0,0 m/s (0 Bft) SO 130 0 min 7,55 klux 11,1 C 12,7 C
05.07.2009 06:32 12,7 C 13,2 C 14,5 C 90 % 1013 hPa 0,0 l/m 0,0 m/s (0 Bft) SO 130 0 min 8,13 klux 11,1 C 12,7 C
05.07.2009 06:37 12,8 C 13,2 C 14,5 C 90 % 1013 hPa 0,0 l/m 0,0 m/s (0 Bft) SO 130 5 min 13,1 klux 11,2 C 12,8 C
05.07.2009 06:42 12,8 C 13,2 C 14,6 C 90 % 1013 hPa 0,0 l/m 0,0 m/s (0 Bft) SO 130 5 min 15,5 klux 11,2 C 12,8 C
05.07.2009 06:47 13,0 C 13,3 C 14,8 C 90 % 1013 hPa 0,0 l/m 0,0 m/s (0 Bft) SO 135 5 min 15,9 klux 11,4 C 13,0 C
05.07.2009 06:52 13,5 C 13,4 C 15,9 C 89 % 1013 hPa 0,0 l/m 0,0 m/s (0 Bft) SO 135 5 min 17,3 klux 11,7 C 13,5 C
05.07.2009 06:57 15,0 C 13,4 C 15,3 C 88 % 1013 hPa 0,0 l/m 0,1 m/s (0 Bft) SO 135 5 min 17,7 klux 13,0 C 15,0 C
05.07.2009 07:02 15,5 C 13,4 C 15,3 C 85 % 1013 hPa 0,0 l/m 0,0 m/s (0 Bft) SO 135 5 min 19,8 klux 13,0 C 15,5 C
05.07.2009 07:07 16,2 C 13,6 C 15,8 C 83 % 1013 hPa 0,0 l/m 0,0 m/s (0 Bft) SO 135 5 min 21,5 klux 13,3 C 16,2 C
05.07.2009 07:11 17,0 C 13,6 C 17,8 C 80 % 1013 hPa 0,0 l/m 0,0 m/s (0 Bft) SO 135 4 min 23,1 klux 13,5 C 17,0 C
05.07.2009 07:16 17,7 C 13,8 C 19,5 C 78 % 1013 hPa 0,0 l/m 0,0 m/s (0 Bft) W-SW 255 5 min 26,4 klux 13,8 C 17,7 C
05.07.2009 07:21 18,2 C 13,8 C 20,1 C 77 % 1013 hPa 0,0 l/m 0,0 m/s (0 Bft) W-SW 255 5 min 27,8 klux 14,1 C 18,2 C
05.07.2009 07:26 18,7 C 13,9 C 20,8 C 72 % 1013 hPa 0,0 l/m 0,0 m/s (0 Bft) W-SW 255 5 min 29,5 klux 13,5 C 18,7 C
05.07.2009 07:31 18,7 C 14,0 C 22,1 C 72 % 1013 hPa 0,0 l/m 0,0 m/s (0 Bft) W-SW 255 5 min 31,2 klux 13,5 C 18,7 C
05.07.2009 07:37 19,0 C 14,1 C 22,2 C 72 % 1013 hPa 0,0 l/m 0,0 m/s (0 Bft) W-SW 255 6 min 33,2 klux 13,8 C 19,0 C
05.07.2009 07:42 19,2 C 14,3 C 23,4 C 72 % 1013 hPa 0,0 l/m 0,0 m/s (0 Bft) W-SW 255 5 min 33,6 klux 14,0 C 19,2 C
05.07.2009 07:47 19,6 C 14,4 C 22,8 C 71 % 1013 hPa 0,0 l/m 0,0 m/s (0 Bft) W-SW 240 5 min 34,9 klux 14,2 C 19,6 C
05.07.2009 07:52 20,0 C 14,5 C 23,7 C 68 % 1013 hPa 0,0 l/m 0,0 m/s (0 Bft) W-SW 245 5 min 36,0 klux 13,9 C 20,0 C
05.07.2009 07:56 20,0 C 14,7 C 24,7 C 68 % 1013 hPa 0,0 l/m 0,0 m/s (0 Bft) W-SW 240 4 min 37,9 klux 13,9 C 20,0 C
05.07.2009 08:01 20,8 C 14,8 C 25,7 C 69 % 1013 hPa 0,0 l/m 0,0 m/s (0 Bft) W-SW 240 5 min 39,6 klux 14,9 C 20,8 C
05.07.2009 08:06 21,6 C 15,0 C 26,6 C 67 % 1013 hPa 0,0 l/m 0,0 m/s (0 Bft) W-SW 240 5 min 41,7 klux 15,2 C 21,6 C
05.07.2009 08:11 21,6 C 15,2 C 26,8 C 67 % 1013 hPa 0,0 l/m 0,0 m/s (0 Bft) W-SW 240 5 min 45,3 klux 15,2 C 21,6 C
05.07.2009 08:16 22,4 C 15,4 C 27,3 C 62 % 1013 hPa 0,0 l/m 0,0 m/s (0 Bft) W-SW 240 5 min 46,0 klux 14,8 C 22,4 C
05.07.2009 08:21 21,8 C 15,5 C 24,8 C 64 % 1013 hPa 0,0 l/m 0,0 m/s (0 Bft) W-SW 240 5 min 35,4 klux 14,7 C 21,8 C
05.07.2009 08:27 21,2 C 15,7 C 24,2 C 65 % 1013 hPa 0,0 l/m 0,0 m/s (0 Bft) W-SW 240 6 min 48,8 klux 14,4 C 21,2 C
05.07.2009 08:32 21,9 C 15,9 C 26,6 C 65 % 1013 hPa 0,0 l/m 0,0 m/s (0 Bft) W-SW 240 5 min 49,4 klux 15,0 C 21,9 C
05.07.2009 08:37 22,8 C 16,0 C 29,4 C 63 % 1013 hPa 0,0 l/m 0,0 m/s (0 Bft) W-SW 240 5 min 51,5 klux 15,4 C 22,8 C
05.07.2009 08:42 22,8 C 16,2 C 30,4 C 62 % 1013 hPa 0,0 l/m 0,0 m/s (0 Bft) W-SW 245 5 min 52,9 klux 15,1 C 22,8 C
05.07.2009 08:46 22,3 C 16,5 C 30,6 C 62 % 1013 hPa 0,0 l/m 0,1 m/s (0 Bft) W-SW 240 4 min 54,7 klux 14,7 C 22,3 C
05.07.2009 08:51 21,1 C 16,5 C 30,9 C 65 % 1013 hPa 0,0 l/m 0,1 m/s (0 Bft) W-SW 240 5 min 55,8 klux 14,3 C 21,1 C
05.07.2009 08:56 20,5 C 16,9 C 31,3 C 67 % 1013 hPa 0,0 l/m 0,0 m/s (0 Bft) W 260 5 min 57,5 klux 14,2 C 20,5 C
05.07.2009 09:01 20,4 C 17,2 C 32,0 C 67 % 1013 hPa 0,0 l/m 0,0 m/s (0 Bft) W-SW22.5 245 5 min 59,5 klux 14,1 C 20,4 C
05.07.2009 09:06 20,4 C 17,5 C 32,3 C 66 % 1013 hPa 0,0 l/m 0,0 m/s (0 Bft) SW 230 5 min 61,6 klux 13,8 C 20,4 C
05.07.2009 09:12 20,7 C 17,6 C 30,7 C 67 % 1013 hPa 0,0 l/m 0,0 m/s (0 Bft) SW 235 6 min 62,3 klux 14,3 C 20,7 C
05.07.2009 09:17 20,9 C 17,9 C 32,6 C 65 % 1013 hPa 0,0 l/m 0,0 m/s (0 Bft) SW 235 5 min 63,8 klux 14,1 C 20,9 C
05.07.2009 09:22 21,2 C 18,2 C 33,1 C 65 % 1013 hPa 0,0 l/m 0,0 m/s (0 Bft) W-SW45 240 5 min 65,3 klux 14,4 C 21,2 C
05.07.2009 09:27 21,6 C 18,2 C 32,3 C 65 % 1013 hPa 0,0 l/m 0,0 m/s (0 Bft) W-SW45 240 5 min 66,4 klux 14,7 C 21,6 C
05.07.2009 09:31 22,1 C 18,7 C 32,7 C 62 % 1013 hPa 0,0 l/m 0,4 m/s (1 Bft) S67.5 170 4 min 67,2 klux 14,5 C 22,1 C
05.07.2009 09:36 22,1 C 19,1 C 33,2 C 62 % 1013 hPa 0,0 l/m 1,6 m/s (1 Bft) O45 90 5 min 71,0 klux 14,5 C 22,1 C
05.07.2009 09:41 22,4 C 19,5 C 33,2 C 63 % 1013 hPa 0,0 l/m 0,9 m/s (1 Bft) SO45 130 5 min 76,6 klux 15,0 C 22,4 C
05.07.2009 09:46 23,2 C 19,7 C 31,6 C 61 % 1013 hPa 0,0 l/m 0,5 m/s (1 Bft) S67.5 175 5 min 79,3 klux 15,3 C 23,2 C
05.07.2009 09:51 23,6 C 20,4 C 30,5 C 60 % 1013 hPa 0,0 l/m 0,5 m/s (1 Bft) S67.5 175 5 min 76,1 klux 15,4 C 23,6 C
05.07.2009 09:56 23,8 C 21,3 C 31,1 C 58 % 1013 hPa 0,0 l/m 1,1 m/s (1 Bft) S45 180 5 min 75,2 klux 15,0 C 23,8 C
05.07.2009 10:02 23,4 C 21,6 C 28,9 C 58 % 1013 hPa 0,0 l/m 1,2 m/s (1 Bft) O-SO45 115 0 min 50,2 klux 14,7 C 23,4 C
05.07.2009 10:07 23,2 C 22,1 C 30,7 C 60 % 1013 hPa 0,0 l/m 0,4 m/s (1 Bft) O-SO22.5 115 5 min 82,1 klux 15,0 C 23,2 C
05.07.2009 10:12 23,2 C 23,2 C 31,5 C 57 % 1013 hPa 0,0 l/m 0,4 m/s (1 Bft) SO45 130 5 min 82,0 klux 14,2 C 23,2 C
05.07.2009 10:16 23,5 C 23,6 C 31,8 C 57 % 1013 hPa 0,0 l/m 2,2 m/s (2 Bft) SO45 140 4 min 85,3 klux 14,5 C 23,0 C
05.07.2009 10:21 23,7 C 24,9 C 31,9 C 57 % 1013 hPa 0,0 l/m 2,2 m/s (2 Bft) SO45 140 5 min 99 klux 14,7 C 23,2 C
05.07.2009 10:26 23,7 C 25,7 C 29,3 C 58 % 1013 hPa 0,0 l/m 0,0 m/s (0 Bft) SO45 140 5 min 63,2 klux 14,9 C 23,7 C
05.07.2009 10:31 23,9 C 25,9 C 29,8 C 58 % 1013 hPa 0,0 l/m 0,1 m/s (0 Bft) S67.5 170 5 min 68,4 klux 15,1 C 23,9 C
05.07.2009 10:36 24,1 C 25,9 C 28,3 C 57 % 1013 hPa 0,0 l/m 0,5 m/s (1 Bft) S67.5 185 5 min 70,9 klux 15,0 C 24,1 C
05.07.2009 10:41 24,2 C 26,1 C 28,0 C 57 % 1013 hPa 0,0 l/m 2,4 m/s (2 Bft) S67.5 185 5 min 64,5 klux 15,1 C 23,6 C
05.07.2009 10:47 24,5 C 26,1 C 28,0 C 54 % 1013 hPa 0,0 l/m 1,9 m/s (2 Bft) S67.5 175 6 min 64,7 klux 14,6 C 24,4 C
05.07.2009 10:52 24,9 C 26,0 C 28,5 C 52 % 1012 hPa 0,0 l/m 0,1 m/s (0 Bft) SO45 140 5 min 69,7 klux 14,4 C 24,9 C
05.07.2009 10:57 25,2 C 26,2 C 29,6 C 51 % 1012 hPa 0,0 l/m 0,1 m/s (0 Bft) SO45 140 5 min 69,9 klux 14,3 C 25,2 C
05.07.2009 11:02 25,4 C 26,4 C 28,5 C 53 % 1012 hPa 0,0 l/m 0,0 m/s (0 Bft) S-SO22.5 160 5 min 60,8 klux 15,1 C 25,4 C
05.07.2009 11:06 25,5 C 26,5 C 28,6 C 52 % 1012 hPa 0,0 l/m 0,0 m/s (0 Bft) S-SO 155 4 min 61,0 klux 14,9 C 25,5 C
05.07.2009 11:11 25,7 C 26,7 C 28,3 C 52 % 1012 hPa 0,0 l/m 0,0 m/s (0 Bft) S-SO22.5 165 0 min 61,0 klux 15,1 C 25,7 C
05.07.2009 11:16 25,4 C 26,7 C 28,8 C 51 % 1012 hPa 0,0 l/m 0,0 m/s (0 Bft) S-SO 150 5 min 61,9 klux 14,5 C 25,4 C
05.07.2009 11:21 25,2 C 26,9 C 30,0 C 53 % 1012 hPa 0,0 l/m 0,0 m/s (0 Bft) S-SO 150 5 min 77,0 klux 14,9 C 25,2 C
05.07.2009 11:26 25,1 C 27,0 C 29,6 C 53 % 1012 hPa 0,0 l/m 1,2 m/s (1 Bft) SW45 235 0 min 61,3 klux 14,8 C 25,1 C
05.07.2009 11:31 25,0 C 26,9 C 29,1 C 54 % 1012 hPa 0,0 l/m 1,9 m/s (2 Bft) W-SW67.5 240 0 min 56,1 klux 15,0 C 24,9 C
05.07.2009 11:37 24,4 C 26,8 C 29,9 C 52 % 1012 hPa 0,0 l/m 2,4 m/s (2 Bft) W-NW67.5 295 6 min 117 klux 13,9 C 23,8 C
05.07.2009 11:42 24,4 C 27,0 C 30,8 C 54 % 1012 hPa 0,0 l/m 1,6 m/s (1 Bft) W45 260 5 min 92,6 klux 14,5 C 24,4 C
05.07.2009 11:47 24,4 C 27,8 C 32,3 C 54 % 1012 hPa 0,0 l/m 0,0 m/s (0 Bft) SW45 225 5 min 96,8 klux 14,5 C 24,4 C
05.07.2009 11:51 24,8 C 28,2 C 32,8 C 53 % 1012 hPa 0,0 l/m 0,3 m/s (0 Bft) N45 360 4 min 104 klux 14,6 C 24,8 C
05.07.2009 11:56 25,2 C 29,4 C 34,2 C 52 % 1012 hPa 0,0 l/m 2,3 m/s (2 Bft) W-NW22.5 290 5 min 105 klux 14,6 C 24,8 C
05.07.2009 12:01 25,2 C 29,5 C 34,4 C 51 % 1012 hPa 0,0 l/m 1,9 m/s (2 Bft) SW22.5 235 5 min 105 klux 14,3 C 25,1 C
05.07.2009 12:06 25,3 C 29,8 C 32,7 C 49 % 1012 hPa 0,0 l/m 2,6 m/s (2 Bft) W-SW45 250 5 min 106 klux 13,8 C 24,6 C
05.07.2009 12:11 25,7 C 30,5 C 33,5 C 51 % 1012 hPa 0,0 l/m 0,4 m/s (1 Bft) S-SW67.5 200 5 min 115 klux 14,8 C 25,7 C
05.07.2009 12:16 25,9 C 30,7 C 32,6 C 50 % 1012 hPa 0,0 l/m 1,6 m/s (2 Bft) S-SO67.5 160 0 min 61,3 klux 14,7 C 25,9 C
05.07.2009 12:22 26,1 C 30,6 C 32,3 C 48 % 1012 hPa 0,0 l/m 3,2 m/s (2 Bft) W-NW45 285 6 min 120 klux 14,2 C 25,1 C
05.07.2009 12:27 26,2 C 30,6 C 31,7 C 48 % 1012 hPa 0,0 l/m 0,2 m/s (0 Bft) SW45 235 0 min 62,8 klux 14,3 C 26,2 C
05.07.2009 12:32 26,3 C 30,2 C 31,7 C 47 % 1012 hPa 0,0 l/m 0,2 m/s (0 Bft) SW45 235 5 min 82,9 klux 14,1 C 26,3 C
05.07.2009 12:37 26,1 C 29,7 C 30,5 C 48 % 1012 hPa 0,0 l/m 0,7 m/s (1 Bft) W45 265 0 min 44,3 klux 14,2 C 26,1 C
05.07.2009 12:41 25,8 C 29,7 C 29,5 C 47 % 1012 hPa 0,0 l/m 0,7 m/s (1 Bft) W-SW67.5 240 0 min 36,1 klux 13,6 C 25,8 C
05.07.2009 12:46 25,2 C 28,5 C 29,1 C 49 % 1012 hPa 0,0 l/m 2,9 m/s (2 Bft) W45 275 0 min 34,6 klux 13,7 C 24,3 C
05.07.2009 12:51 24,9 C 28,5 C 28,8 C 49 % 1012 hPa 0,0 l/m 3,4 m/s (3 Bft) W-NW45 290 0 min 31,4 klux 13,4 C 23,6 C
05.07.2009 12:56 24,6 C 27,6 C 28,9 C 51 % 1012 hPa 0,0 l/m 3,0 m/s (2 Bft) W45 280 0 min 32,0 klux 13,8 C 23,6 C
05.07.2009 13:01 24,5 C 27,1 C 28,8 C 52 % 1012 hPa 0,0 l/m 2,9 m/s (2 Bft) W-NW22.5 285 0 min 32,9 klux 14,0 C 23,5 C
05.07.2009 13:06 24,4 C 26,9 C 28,4 C 51 % 1012 hPa 0,0 l/m 3,7 m/s (3 Bft) W45 275 0 min 30,5 klux 13,6 C 22,9 C
05.07.2009 13:12 24,3 C 26,5 C 27,9 C 52 % 1012 hPa 0,0 l/m 3,0 m/s (2 Bft) W-NW22.5 285 0 min 29,0 klux 13,8 C 23,2 C
05.07.2009 13:17 24,2 C 26,1 C 28,1 C 53 % 1012 hPa 0,0 l/m 2,4 m/s (2 Bft) W45 280 0 min 29,3 klux 14,0 C 23,6 C
05.07.2009 13:22 24,2 C 25,9 C 27,9 C 52 % 1012 hPa 0,0 l/m 3,1 m/s (2 Bft) W45 270 0 min 28,4 klux 13,7 C 23,0 C
05.07.2009 13:27 24,2 C 25,8 C 28,3 C 52 % 1012 hPa 0,0 l/m 2,4 m/s (2 Bft) W45 270 0 min 29,9 klux 13,7 C 23,6 C
05.07.2009 13:31 24,3 C 25,6 C 27,9 C 52 % 1012 hPa 0,0 l/m 2,8 m/s (2 Bft) W-NW45 285 0 min 31,7 klux 13,8 C 23,4 C
05.07.2009 13:36 24,3 C 25,5 C 27,8 C 52 % 1012 hPa 0,0 l/m 2,8 m/s (2 Bft) W-NW45 285 0 min 39,2 klux 13,8 C 23,4 C
05.07.2009 13:41 24,4 C 25,4 C 28,2 C 51 % 1012 hPa 0,0 l/m 3,1 m/s (2 Bft) W-NW22.5 285 0 min 48,2 klux 13,6 C 23,3 C
05.07.2009 13:46 24,7 C 25,7 C 29,4 C 51 % 1012 hPa 0,0 l/m 2,7 m/s (2 Bft) W45 275 0 min 53,9 klux 13,9 C 23,9 C
05.07.2009 13:51 25,1 C 26,1 C 29,2 C 50 % 1012 hPa 0,0 l/m 2,3 m/s (2 Bft) W-SW67.5 240 5 min 72,2 klux 13,9 C 24,7 C
05.07.2009 13:56 25,1 C 26,2 C 29,1 C 49 % 1011 hPa 0,0 l/m 3,2 m/s (2 Bft) W45 280 0 min 46,2 klux 13,6 C 24,0 C
05.07.2009 14:02 25,2 C 26,8 C 29,8 C 51 % 1011 hPa 0,0 l/m 2,6 m/s (2 Bft) W45 280 0 min 67,6 klux 14,3 C 24,5 C
05.07.2009 14:07 25,5 C 27,7 C 30,7 C 51 % 1011 hPa 0,0 l/m 0,5 m/s (1 Bft) W-SW45 240 5 min 114 klux 14,6 C 25,5 C
05.07.2009 14:12 25,9 C 29,1 C 31,8 C 51 % 1011 hPa 0,0 l/m 2,6 m/s (2 Bft) W45 260 5 min 113 klux 15,0 C 25,3 C
05.07.2009 14:17 26,4 C 29,7 C 32,8 C 47 % 1011 hPa 0,0 l/m 2,2 m/s (2 Bft) W-SW67.5 245 5 min 113 klux 14,2 C 26,1 C
05.07.2009 14:21 26,8 C 30,4 C 32,8 C 47 % 1011 hPa 0,0 l/m 0,5 m/s (1 Bft) W-SW67.5 250 4 min 108 klux 14,5 C 26,8 C
05.07.2009 14:26 26,9 C 30,9 C 33,1 C 44 % 1011 hPa 0,0 l/m 0,3 m/s (0 Bft) SW45 230 5 min 105 klux 13,6 C 26,9 C
05.07.2009 14:31 27,1 C 31,4 C 33,5 C 44 % 1011 hPa 0,0 l/m 3,6 m/s (3 Bft) W45 275 5 min 106 klux 13,8 C 26,1 C
05.07.2009 14:36 27,2 C 31,7 C 33,5 C 45 % 1011 hPa 0,0 l/m 3,8 m/s (3 Bft) W45 275 5 min 105 klux 14,2 C 26,1 C
05.07.2009 14:41 27,4 C 32,3 C 33,6 C 44 % 1011 hPa 0,0 l/m 2,1 m/s (2 Bft) SW67.5 230 5 min 106 klux 14,0 C 27,2 C
05.07.2009 14:46 27,5 C 32,3 C 33,5 C 44 % 1011 hPa 0,0 l/m 2,1 m/s (2 Bft) SW67.5 230 5 min 107 klux 14,1 C 27,3 C
05.07.2009 14:52 27,8 C 33,3 C 33,8 C 40 % 1011 hPa 0,0 l/m 3,0 m/s (2 Bft) W-NW45 285 6 min 105 klux 12,9 C 27,2 C
05.07.2009 14:57 27,9 C 33,8 C 33,4 C 40 % 1011 hPa 0,0 l/m 4,0 m/s (3 Bft) W45 270 5 min 109 klux 13,0 C 26,9 C
05.07.2009 15:02 28,2 C 33,8 C 32,1 C 41 % 1011 hPa 0,0 l/m 4,3 m/s (3 Bft) W45 265 5 min 111 klux 13,7 C 27,2 C
05.07.2009 15:06 28,1 C 33,9 C 31,2 C 40 % 1011 hPa 0,0 l/m 4,7 m/s (3 Bft) W45 280 4 min 107 klux 13,2 C 26,9 C
05.07.2009 15:11 27,0 C 32,5 C 30,6 C 41 % 1011 hPa 0,0 l/m 0,5 m/s (1 Bft) SW67.5 235 0 min 22,2 klux 12,6 C 27,0 C
05.07.2009 15:16 26,6 C 31,1 C 29,7 C 43 % 1011 hPa 0,0 l/m 3,6 m/s (3 Bft) W-NW22.5 295 0 min 18,8 klux 13,0 C 25,5 C
05.07.2009 15:21 26,0 C 30,5 C 29,3 C 45 % 1011 hPa 0,0 l/m 4,7 m/s (3 Bft) NW45 310 0 min 20,9 klux 13,1 C 24,3 C
05.07.2009 15:26 25,9 C 29,5 C 29,3 C 46 % 1011 hPa 0,0 l/m 3,8 m/s (3 Bft) NW45 305 0 min 47,1 klux 13,4 C 24,6 C
05.07.2009 15:31 26,1 C 29,7 C 29,8 C 48 % 1011 hPa 0,0 l/m 1,3 m/s (1 Bft) W22.5 265 0 min 46,9 klux 14,2 C 26,1 C
05.07.2009 15:37 26,3 C 29,8 C 29,9 C 46 % 1011 hPa 0,0 l/m 2,3 m/s (2 Bft) W45 260 0 min 43,2 klux 13,7 C 25,9 C
05.07.2009 15:42 27,1 C 30,6 C 29,8 C 44 % 1011 hPa 0,0 l/m 3,6 m/s (3 Bft) W22.5 270 5 min 110 klux 13,8 C 26,1 C
05.07.2009 15:47 27,7 C 32,1 C 29,5 C 44 % 1011 hPa 0,0 l/m 0,3 m/s (0 Bft) W-SW67.5 240 5 min 105 klux 14,3 C 27,7 C
05.07.2009 15:52 27,9 C 32,9 C 29,1 C 43 % 1010 hPa 0,0 l/m 2,6 m/s (2 Bft) W45 260 5 min 102 klux 14,1 C 27,5 C
05.07.2009 15:56 28,2 C 33,2 C 29,1 C 43 % 1010 hPa 0,0 l/m 4,5 m/s (3 Bft) W45 275 4 min 100 klux 14,4 C 27,1 C
05.07.2009 16:01 28,5 C 33,8 C 29,4 C 41 % 1010 hPa 0,0 l/m 3,8 m/s (3 Bft) W45 280 5 min 101 klux 13,9 C 27,7 C
05.07.2009 16:06 28,6 C 33,9 C 28,9 C 41 % 1010 hPa 0,0 l/m 2,4 m/s (2 Bft) S-SW67.5 210 5 min 91,8 klux 14,0 C 28,3 C
05.07.2009 16:11 28,1 C 33,4 C 28,8 C 42 % 1010 hPa 0,0 l/m 3,7 m/s (3 Bft) W67.5 275 0 min 37,7 klux 14,0 C 27,2 C
05.07.2009 16:16 27,2 C 31,8 C 28,4 C 42 % 1010 hPa 0,0 l/m 3,6 m/s (3 Bft) W-NW45 290 0 min 33,6 klux 13,2 C 26,2 C
05.07.2009 16:21 27,0 C 30,7 C 28,5 C 44 % 1010 hPa 0,0 l/m 3,3 m/s (2 Bft) W-NW67.5 290 0 min 39,7 klux 13,7 C 26,1 C
05.07.2009 16:27 26,5 C 30,2 C 28,3 C 45 % 1010 hPa 0,0 l/m 3,6 m/s (3 Bft) W-NW45 290 0 min 41,1 klux 13,6 C 25,4 C
05.07.2009 16:32 27,1 C 30,5 C 28,6 C 45 % 1010 hPa 0,0 l/m 2,6 m/s (2 Bft) W-NW45 285 5 min 98,0 klux 14,1 C 26,6 C
05.07.2009 16:37 27,8 C 32,0 C 29,2 C 44 % 1010 hPa 0,0 l/m 3,5 m/s (3 Bft) W-NW45 295 5 min 94,5 klux 14,4 C 27,0 C
05.07.2009 16:42 28,1 C 33,1 C 29,3 C 43 % 1010 hPa 0,0 l/m 3,9 m/s (3 Bft) W67.5 270 5 min 92,8 klux 14,3 C 27,2 C
05.07.2009 16:46 28,6 C 33,6 C 29,3 C 40 % 1010 hPa 0,0 l/m 3,3 m/s (2 Bft) W45 275 4 min 95,5 klux 13,7 C 27,9 C
05.07.2009 16:51 28,2 C 33,6 C 29,0 C 40 % 1010 hPa 0,0 l/m 2,3 m/s (2 Bft) W67.5 270 0 min 37,7 klux 13,3 C 27,9 C
05.07.2009 16:56 28,0 C 33,3 C 28,6 C 42 % 1010 hPa 0,0 l/m 0,1 m/s (0 Bft) S-SW67.5 210 0 min 22,6 klux 13,9 C 28,0 C
05.07.2009 17:01 27,0 C 32,3 C 28,0 C 44 % 1010 hPa 0,0 l/m 0,1 m/s (0 Bft) O45 100 0 min 19,8 klux 13,7 C 27,0 C
05.07.2009 17:06 26,2 C 31,8 C 27,7 C 46 % 1010 hPa 0,0 l/m 0,0 m/s (0 Bft) O 100 0 min 16,2 klux 13,6 C 26,2 C
05.07.2009 17:11 25,9 C 30,9 C 27,6 C 47 % 1010 hPa 0,0 l/m 0,0 m/s (0 Bft) O-SO 105 0 min 18,1 klux 13,7 C 25,9 C
05.07.2009 17:17 25,7 C 30,4 C 27,8 C 48 % 1010 hPa 0,0 l/m 0,0 m/s (0 Bft) O 100 0 min 44,6 klux 13,9 C 25,7 C
05.07.2009 17:22 25,9 C 30,7 C 27,5 C 46 % 1010 hPa 0,0 l/m 1,5 m/s (1 Bft) SO22.5 125 5 min 72,5 klux 13,4 C 25,9 C
05.07.2009 17:27 26,6 C 32,3 C 27,9 C 46 % 1010 hPa 0,0 l/m 1,5 m/s (1 Bft) SO22.5 125 5 min 72,9 klux 14,0 C 26,6 C
05.07.2009 17:32 27,0 C 33,8 C 27,9 C 45 % 1010 hPa 0,0 l/m 0,2 m/s (0 Bft) S-SW45 195 5 min 73,4 klux 14,0 C 27,0 C
05.07.2009 17:36 27,4 C 33,9 C 27,6 C 44 % 1010 hPa 0,0 l/m 0,7 m/s (1 Bft) S67.5 170 4 min 69,4 klux 14,0 C 27,4 C
05.07.2009 17:41 27,8 C 34,4 C 28,1 C 42 % 1010 hPa 0,0 l/m 1,5 m/s (1 Bft) SW67.5 220 5 min 72,6 klux 13,7 C 27,8 C
05.07.2009 17:46 27,6 C 34,2 C 27,5 C 44 % 1010 hPa 0,0 l/m 0,2 m/s (0 Bft) SW45 230 0 min 32,9 klux 14,2 C 27,6 C
05.07.2009 17:51 27,4 C 34,2 C 27,9 C 44 % 1010 hPa 0,0 l/m 0,0 m/s (0 Bft) S-SO67.5 165 5 min 57,9 klux 14,0 C 27,4 C
05.07.2009 17:56 27,2 C 33,3 C 27,9 C 44 % 1010 hPa 0,0 l/m 0,0 m/s (0 Bft) S-SO67.5 165 0 min 39,5 klux 13,9 C 27,2 C
05.07.2009 18:01 27,1 C 32,6 C 27,8 C 44 % 1010 hPa 0,0 l/m 2,1 m/s (2 Bft) W45 270 0 min 28,0 klux 13,8 C 26,9 C
05.07.2009 18:07 27,0 C 32,1 C 27,9 C 44 % 1010 hPa 0,0 l/m 0,8 m/s (1 Bft) W-SW22.5 240 6 min 48,4 klux 13,7 C 27,0 C
05.07.2009 18:12 27,1 C 32,3 C 27,8 C 45 % 1010 hPa 0,0 l/m 0,2 m/s (0 Bft) W-SW22.5 250 0 min 28,8 klux 14,1 C 27,1 C
05.07.2009 18:17 27,1 C 32,5 C 27,6 C 45 % 1010 hPa 0,0 l/m 2,1 m/s (2 Bft) SO45 130 5 min 53,7 klux 14,1 C 26,9 C
05.07.2009 18:22 26,8 C 33,1 C 27,8 C 47 % 1010 hPa 0,0 l/m 1,4 m/s (1 Bft) O-SO22.5 120 5 min 49,7 klux 14,5 C 26,8 C
05.07.2009 18:26 26,7 C 33,1 C 27,3 C 47 % 1010 hPa 0,0 l/m 2,5 m/s (2 Bft) O-SO45 120 4 min 39,3 klux 14,4 C 26,2 C
05.07.2009 18:31 26,4 C 32,9 C 27,8 C 48 % 1009 hPa 0,0 l/m 1,4 m/s (1 Bft) O45 95 5 min 40,2 klux 14,5 C 26,4 C
05.07.2009 18:36 26,4 C 32,5 C 27,5 C 49 % 1009 hPa 0,0 l/m 0,0 m/s (0 Bft) O22.5 100 0 min 20,4 klux 14,8 C 26,4 C
05.07.2009 18:41 26,1 C 32,3 C 27,3 C 49 % 1009 hPa 0,0 l/m 0,9 m/s (1 Bft) O45 95 0 min 17,5 klux 14,5 C 26,1 C
05.07.2009 18:46 26,0 C 31,6 C 27,1 C 48 % 1009 hPa 0,0 l/m 0,9 m/s (1 Bft) O45 95 5 min 38,5 klux 14,1 C 26,0 C
05.07.2009 18:52 26,0 C 31,9 C 27,3 C 49 % 1009 hPa 0,0 l/m 1,5 m/s (1 Bft) SO45 130 6 min 41,0 klux 14,4 C 26,0 C
05.07.2009 18:57 26,1 C 32,1 C 27,3 C 50 % 1009 hPa 0,0 l/m 1,9 m/s (2 Bft) SO45 135 5 min 43,3 klux 14,8 C 26,0 C
05.07.2009 19:02 26,4 C 32,5 C 27,0 C 47 % 1009 hPa 0,0 l/m 1,5 m/s (1 Bft) S-SO67.5 150 5 min 46,2 klux 14,2 C 26,4 C
05.07.2009 19:07 26,7 C 32,9 C 27,3 C 49 % 1009 hPa 0,0 l/m 1,3 m/s (1 Bft) S-SW67.5 205 5 min 47,3 klux 15,1 C 26,7 C
05.07.2009 19:11 28,3 C 33,1 C 26,9 C 45 % 1009 hPa 0,0 l/m 0,2 m/s (0 Bft) S67.5 175 4 min 44,4 klux 15,2 C 28,3 C
05.07.2009 19:16 28,8 C 33,1 C 26,9 C 41 % 1009 hPa 0,0 l/m 2,1 m/s (2 Bft) S-SO67.5 165 5 min 38,7 klux 14,2 C 28,6 C
05.07.2009 19:21 29,0 C 32,7 C 26,6 C 41 % 1009 hPa 0,0 l/m 2,6 m/s (2 Bft) SW67.5 215 5 min 37,0 klux 14,4 C 28,6 C
05.07.2009 19:26 28,2 C 31,6 C 26,7 C 42 % 1009 hPa 0,0 l/m 1,4 m/s (1 Bft) S67.5 175 0 min 21,3 klux 14,0 C 28,2 C
05.07.2009 19:31 27,2 C 30,6 C 26,5 C 45 % 1009 hPa 0,0 l/m 0,1 m/s (0 Bft) S-SO67.5 160 0 min 14,2 klux 14,2 C 27,2 C
05.07.2009 19:36 26,4 C 30,3 C 26,2 C 47 % 1009 hPa 0,0 l/m 0,1 m/s (0 Bft) SW67.5 230 0 min 11,6 klux 14,2 C 26,4 C
05.07.2009 19:42 26,1 C 29,9 C 26,2 C 48 % 1009 hPa 0,0 l/m 0,2 m/s (0 Bft) W-SW22.5 250 0 min 10,7 klux 14,2 C 26,1 C
05.07.2009 19:47 25,9 C 29,2 C 26,0 C 48 % 1009 hPa 0,0 l/m 0,1 m/s (0 Bft) W-SW22.5 250 0 min 8,34 klux 14,0 C 25,9 C
05.07.2009 19:52 25,1 C 28,6 C 25,7 C 52 % 1009 hPa 0,0 l/m 0,1 m/s (0 Bft) W-SW 240 0 min 6,82 klux 14,5 C 25,1 C
05.07.2009 19:57 24,9 C 28,1 C 24,9 C 52 % 1009 hPa 0,0 l/m 0,0 m/s (0 Bft) W-SW 240 0 min 6,34 klux 14,4 C 24,9 C
05.07.2009 20:01 24,6 C 27,5 C 25,1 C 53 % 1009 hPa 0,0 l/m 0,0 m/s (0 Bft) W-SW 240 0 min 6,03 klux 14,4 C 24,6 C
05.07.2009 20:06 24,4 C 27,4 C 25,1 C 54 % 1009 hPa 0,0 l/m 0,0 m/s (0 Bft) W-SW 240 0 min 6,54 klux 14,5 C 24,4 C
05.07.2009 20:11 24,3 C 27,0 C 25,0 C 57 % 1009 hPa 0,0 l/m 0,0 m/s (0 Bft) SW 215 0 min 6,90 klux 15,2 C 24,3 C
05.07.2009 20:16 24,2 C 26,8 C 25,1 C 58 % 1009 hPa 0,0 l/m 0,0 m/s (0 Bft) SW 215 0 min 6,41 klux 15,4 C 24,2 C
05.07.2009 20:21 23,9 C 26,6 C 25,1 C 58 % 1009 hPa 0,0 l/m 0,0 m/s (0 Bft) SW 215 0 min 4,88 klux 15,1 C 23,9 C
05.07.2009 20:26 23,7 C 26,4 C 24,9 C 60 % 1009 hPa 0,0 l/m 0,0 m/s (0 Bft) SW 215 0 min 4,47 klux 15,5 C 23,7 C
05.07.2009 20:32 23,6 C 26,1 C 24,5 C 62 % 1009 hPa 0,0 l/m 0,0 m/s (0 Bft) SW 215 0 min 2,87 klux 15,9 C 23,6 C
05.07.2009 20:37 23,3 C 25,9 C 24,4 C 62 % 1009 hPa 0,0 l/m 1,0 m/s (1 Bft) W-SW 255 0 min 2,15 klux 15,6 C 23,3 C
05.07.2009 20:42 23,2 C 25,4 C 24,4 C 61 % 1009 hPa 0,0 l/m 1,7 m/s (2 Bft) W45 265 0 min 2,17 klux 15,3 C 23,2 C
05.07.2009 20:47 23,2 C 25,3 C 24,4 C 61 % 1009 hPa 0,0 l/m 1,6 m/s (2 Bft) W45 275 0 min 2,07 klux 15,3 C 23,2 C
05.07.2009 20:51 23,1 C 25,1 C 24,0 C 61 % 1009 hPa 0,0 l/m 1,8 m/s (2 Bft) W45 270 0 min 1,91 klux 15,2 C 23,1 C
05.07.2009 20:56 23,1 C 24,9 C 24,0 C 61 % 1009 hPa 0,0 l/m 2,4 m/s (2 Bft) W45 275 0 min 1,81 klux 15,2 C 22,5 C
05.07.2009 21:01 23,0 C 24,9 C 23,8 C 61 % 1009 hPa 0,0 l/m 2,4 m/s (2 Bft) W45 275 0 min 1,69 klux 15,1 C 22,4 C
05.07.2009 21:06 22,9 C 24,6 C 23,6 C 60 % 1009 hPa 0,0 l/m 3,1 m/s (2 Bft) W-NW22.5 285 0 min 1,57 klux 14,7 C 21,6 C
05.07.2009 21:11 22,8 C 24,4 C 23,5 C 61 % 1009 hPa 0,0 l/m 1,2 m/s (1 Bft) W22.5 270 0 min 1,31 klux 14,9 C 22,8 C
05.07.2009 21:16 22,8 C 24,3 C 23,1 C 61 % 1009 hPa 0,0 l/m 2,3 m/s (2 Bft) W-NW45 285 0 min 994 lux 14,9 C 22,3 C
05.07.2009 21:22 22,6 C 24,1 C 23,1 C 62 % 1009 hPa 0,0 l/m 3,3 m/s (2 Bft) W-NW45 290 0 min 783 lux 14,9 C 21,0 C
05.07.2009 21:27 22,4 C 23,8 C 22,9 C 61 % 1009 hPa 0,0 l/m 2,7 m/s (2 Bft) NW45 305 0 min 560 lux 14,5 C 21,4 C
05.07.2009 21:32 22,3 C 23,8 C 22,8 C 62 % 1010 hPa 0,0 l/m 0,3 m/s (0 Bft) W22.5 265 0 min 355 lux 14,7 C 22,3 C
05.07.2009 21:36 22,3 C 23,8 C 22,8 C 62 % 1010 hPa 0,0 l/m 0,3 m/s (0 Bft) W22.5 275 0 min 254 lux 14,7 C 22,3 C
05.07.2009 21:41 22,1 C 23,5 C 22,9 C 62 % 1010 hPa 0,0 l/m 0,3 m/s (0 Bft) W22.5 275 0 min 176 lux 14,5 C 22,1 C
05.07.2009 21:46 22,0 C 23,4 C 22,7 C 63 % 1010 hPa 0,0 l/m 1,7 m/s (2 Bft) W45 260 0 min 148 lux 14,6 C 22,0 C
05.07.2009 21:51 21,9 C 23,3 C 22,6 C 63 % 1010 hPa 0,0 l/m 0,1 m/s (0 Bft) W-SW22.5 245 0 min 100 lux 14,5 C 21,9 C
05.07.2009 21:56 21,9 C 23,2 C 22,5 C 63 % 1010 hPa 0,0 l/m 0,0 m/s (0 Bft) W-SW 240 0 min 60 lux 14,5 C 21,9 C
05.07.2009 22:01 21,7 C 23,0 C 22,2 C 64 % 1010 hPa 0,0 l/m 1,3 m/s (1 Bft) W-SW22.5 250 0 min 32 lux 14,6 C 21,7 C
05.07.2009 22:07 21,6 C 23,0 C 22,4 C 64 % 1010 hPa 0,0 l/m 0,0 m/s (0 Bft) W-SW 245 0 min 19 lux 14,5 C 21,6 C
05.07.2009 22:12 21,5 C 22,9 C 22,2 C 65 % 1010 hPa 0,0 l/m 0,0 m/s (0 Bft) W-SW 245 0 min 11 lux 14,6 C 21,5 C
05.07.2009 22:17 21,4 C 22,8 C 22,0 C 65 % 1010 hPa 0,0 l/m 0,0 m/s (0 Bft) W-SW 245 0 min 6 lux 14,5 C 21,4 C
05.07.2009 22:21 21,4 C 22,7 C 22,1 C 65 % 1010 hPa 0,0 l/m 0,0 m/s (0 Bft) W-SW22.5 250 0 min 3 lux 14,5 C 21,4 C
05.07.2009 22:26 21,3 C 22,6 C 22,0 C 66 % 1010 hPa 0,0 l/m 0,0 m/s (0 Bft) W-SW 245 0 min 1 lux 14,7 C 21,3 C
05.07.2009 22:31 21,2 C 22,6 C 22,0 C 66 % 1010 hPa 0,0 l/m 1,8 m/s (2 Bft) W45 265 0 min 0 lux 14,6 C 21,2 C
05.07.2009 22:36 21,2 C 22,5 C 21,9 C 67 % 1010 hPa 0,0 l/m 1,7 m/s (2 Bft) W45 270 0 min 0 lux 14,8 C 21,2 C
05.07.2009 22:41 21,1 C 22,4 C 22,0 C 67 % 1010 hPa 0,0 l/m 1,6 m/s (1 Bft) W22.5 265 0 min 0 lux 14,7 C 21,1 C
05.07.2009 22:46 21,0 C 22,3 C 21,9 C 67 % 1010 hPa 0,0 l/m 1,2 m/s (1 Bft) W-SW22.5 255 0 min 0 lux 14,6 C 21,0 C
05.07.2009 22:52 21,0 C 22,3 C 21,7 C 68 % 1010 hPa 0,0 l/m 1,2 m/s (1 Bft) W-SW22.5 255 0 min 0 lux 14,9 C 21,0 C
05.07.2009 22:57 21,0 C 22,2 C 21,6 C 68 % 1010 hPa 0,0 l/m 1,8 m/s (2 Bft) W45 280 0 min 0 lux 14,9 C 21,0 C
05.07.2009 23:02 20,9 C 22,2 C 21,7 C 68 % 1010 hPa 0,0 l/m 1,8 m/s (2 Bft) W45 280 0 min 0 lux 14,8 C 20,9 C
05.07.2009 23:07 20,9 C 22,1 C 21,8 C 68 % 1010 hPa 0,0 l/m 0,1 m/s (0 Bft) W-SW 250 0 min 0 lux 14,8 C 20,9 C
05.07.2009 23:11 20,8 C 22,0 C 21,4 C 69 % 1010 hPa 0,0 l/m 0,0 m/s (0 Bft) W-SW 250 0 min 0 lux 14,9 C 20,8 C
05.07.2009 23:16 20,8 C 22,0 C 21,5 C 69 % 1010 hPa 0,0 l/m 0,0 m/s (0 Bft) W-SW 250 0 min 0 lux 14,9 C 20,8 C
05.07.2009 23:21 20,7 C 21,8 C 21,2 C 69 % 1010 hPa 0,0 l/m 0,0 m/s (0 Bft) W-SW 245 0 min 0 lux 14,8 C 20,7 C
05.07.2009 23:26 20,5 C 21,8 C 20,9 C 69 % 1010 hPa 0,0 l/m 0,0 m/s (0 Bft) W-SW 245 0 min 0 lux 14,6 C 20,5 C
05.07.2009 23:31 20,4 C 21,7 C 21,0 C 70 % 1010 hPa 0,0 l/m 0,0 m/s (0 Bft) W-SW 245 0 min 0 lux 14,7 C 20,4 C
05.07.2009 23:36 20,1 C 21,5 C 20,9 C 70 % 1010 hPa 0,0 l/m 0,0 m/s (0 Bft) W-SW 245 0 min 0 lux 14,5 C 20,1 C
05.07.2009 23:42 19,8 C 21,4 C 20,7 C 71 % 1010 hPa 0,0 l/m 0,0 m/s (0 Bft) W-SW 245 0 min 0 lux 14,4 C 19,8 C
05.07.2009 23:47 19,8 C 21,3 C 20,9 C 71 % 1010 hPa 0,0 l/m 0,0 m/s (0 Bft) W-SW 245 0 min 0 lux 14,4 C 19,8 C
05.07.2009 23:52 19,5 C 21,2 C 20,3 C 75 % 1010 hPa 0,0 l/m 0,0 m/s (0 Bft) S-SW67.5 205 0 min 0 lux 14,9 C 19,5 C
05.07.2009 23:57 19,4 C 21,0 C 20,4 C 73 % 1010 hPa 0,0 l/m 1,9 m/s (2 Bft) SO67.5 145 0 min 0 lux 14,4 C 19,1 C
_ Min-Zeit 05:22 05:47 04:57 14:52 18:31 - 00:17 - - - - 05:22 05:22
Minimum _ 12,3 C 13,1 C 13,8 C 40 % 1009 hPa - 0,0 m/s (0 Bft) - - - - 10,7 C 12,3 C
_ Max-Zeit 19:21 17:41 12:01 05:02 00:56 00:01 15:21 - - 07:37 12:22 20:32 19:21
Maximum _ 29,0 C 34,4 C 34,4 C 91 % 1014 hPa 0,0 l/m 4,7 m/s
NW (3 Bft)
- - 6 min 120 klux 15,9 C 28,6 C
Durchschnitt _ 21,1 C 22,7 C 23,9 C 65 % 1012 hPa #0,0 l/m 0,9 m/s (1 Bft) W - #9:00 h 32,2 klux 13,6 C 21,0 C